Location: Killarney
(45.9719°N, 81.5115°W)
Time: 08:20:58
(UTC-04:00)

ISS - Pass Details

Date: 23 April 2025
Orbit: 416 x 419 km, 51.6° (Epoch: 14 May)

Event Time Altitude Azimuth Distance (km) Brightness Sun altitude
Exits shadow 05:28:08 15° 241° (WSW) 1,230 -2.1 -9.9°
Maximum altitude 05:30:50 89° 168° (SSE) 422 -3.8 -9.5°
Drops below altitude 10° 05:34:13 10° 62° (ENE) 1,498 0.8 -9.0°
Sets 05:36:19 0° 63° (ENE) 2,365 2.6 -8.6°
